www.pogodaiklimat.ru
ПОГОДА в Антверпене
Время
(UTC), дата
22 7.12
23 7.12
00 8.12
01 8.12
02 8.12
03 8.12
04 8.12
05 8.12
06 8.12
07 8.12
08 8.12
09 8.12
10 8.12
11 8.12
12 8.12
13 8.12
14 8.12
15 8.12
16 8.12
17 8.12
18 8.12
19 8.12
20 8.12
21 8.12
22 8.12
23 8.12
00 9.12
01 9.12
02 9.12
03 9.12
04 9.12
05 9.12
06 9.12
07 9.12
08 9.12
09 9.12
10 9.12
11 9.12
12 9.12
13 9.12
14 9.12
15 9.12
16 9.12
17 9.12
18 9.12
19 9.12
20 9.12
21 9.12
22 9.12
23 9.12
00 10.12
01 10.12
02 10.12
03 10.12
04 10.12
05 10.12
06 10.12
07 10.12
08 10.12
09 10.12
10 10.12
11 10.12
12 10.12
13 10.12
14 10.12
15 10.12
16 10.12
17 10.12
18 10.12
19 10.12
20 10.12
21 10.12
22 10.12
23 10.12
00 11.12
01 11.12
02 11.12
03 11.12
04 11.12
05 11.12
06 11.12
07 11.12
08 11.12
09 11.12
10 11.12
11 11.12
12 11.12
13 11.12
14 11.12
15 11.12
16 11.12
17 11.12
18 11.12
19 11.12
20 11.12
21 11.12
22 11.12
23 11.12
00 12.12
01 12.12
02 12.12
03 12.12
04 12.12
05 12.12
06 12.12
07 12.12
08 12.12
09 12.12
10 12.12
11 12.12
12 12.12
13 12.12
14 12.12
15 12.12
16 12.12
17 12.12
18 12.12
19 12.12
20 12.12
21 12.12
22 12.12
23 12.12
00 13.12
01 13.12
02 13.12
03 13.12
04 13.12
05 13.12
06 13.12
07 13.12
08 13.12
09 13.12
10 13.12
11 13.12
12 13.12
13 13.12
14 13.12
15 13.12
16 13.12
17 13.12
18 13.12
19 13.12
20 13.12
21 13.12
22 13.12
23 13.12
00 14.12
01 14.12
02 14.12
03 14.12
04 14.12
05 14.12
06 14.12
07 14.12
08 14.12
09 14.12
10 14.12
11 14.12
12 14.12
13 14.12
14 14.12
15 14.12
16 14.12
17 14.12
18 14.12
19 14.12
20 14.12
21 14.12
22 14.12
Ветер
(напр.,м/с)
Видим. Явления Облачность Т
(С)
Тd
(С)
f
(%)
Тe
(С)
Тes
(С)
Комфортность P
(гПа)
Po
(гПа)
Тmin
(С)
Tmax
(С)
R
(мм)
R24
(мм)
S
(см)
ЮЗ 6
{9}
30 км 9/9 1020 м
[Sc]
+9.7 +5.4 75 +6 +6 1013.2 1011.6
ЮЗ 5
{10}
40 км 10/10 900 м
[]
+9.7 +5.7 76 +7 +7 1012.5 1010.9
ЮЗ 6
{11}
40 км 10/10 960 м
[]
+9.5 +5.7 77 +6 +6 1011.2 1009.6
ЮЗ 8
{13}
45 км 9/9 900 м
[]
+9.4 +5.5 77 +5 +5 1010.0 1008.4
ЮЗ 7
{13}
45 км 10/10 630 м
[]
+9.5 +5.3 75 +6 +6 1008.9 1007.3
ЮЗ 7
{13}
45 км 10/10 500 м
[]
+9.7 +6.1 78 +6 +6 1007.8 1006.2
ЮЗ 8
{13}
35 км 10/10 600 м
[]
+10.2 +6.3 77 +6 +6 1006.0 1004.4
ЮЗ 10
{16}
45 км 10/10 570 м
[]
+10.5 +6.5 76 +6 +6 1004.8 1003.2
ЮЗ 10
{17}
9000 м слаб. дождь 10/5 600 м
[Sc Ac As]
+9.6 +6.8 83 +5 +5 1004.4 1002.9 +9.1 0.2
ЮЗ 8
{17}
9000 м слаб. дождь 10/9 300 м
[Sc]
+9.5 +7.7 89 +5 +5 1003.1 1001.5
ЮЗ 9
{16}
10 км слаб. дождь 10/9 240 м
[Sc]
+9.5 +7.9 90 +5 +5 1002.6 1001.0
ЮЗ 8
{17}
2800 м дождь {морось} 10/9 240 м
[Frnb]
+9.7 +8.5 92 +5 +5 1002.3 1000.7
ЮЗ 8
{13}
2800 м дождь {морось} 10/9 240 м
[Frnb]
+10.2 +9.0 92 +6 +6 1002.6 1001.1
ЮЗ 7
{13}
30 км в посл. час дождь {морось} 10/9 420 м
[Cu Sc]
+11.1 +8.6 85 +8 +8 1002.5 1000.9
З 9
{17}
30 км {дождь, морось} 9/3 600 м
[Cu Sc Ac trans Ci sp]
+11.6 +6.4 70 +8 +8 1002.4 1000.9 2
З 7
{15}
30 км 9/3 900 м
[Cu med, cong Ci sp]
+11.2 +5.5 68 +8 +8 1002.1 1000.5
З 8
{15}
30 км 6/1 960 м
[Cu med, cong Ci sp]
+11.2 +3.9 61 +8 +8 1001.7 1000.1
ЮЗ 7
{15}
30 км 4/1 960 м
[Cu hum Ci fib]
+10.8 +4.4 65 +8 +8 1001.2 999.6
ЮЗ 7
{12}
30 км 5/0
[Ac trans Ci sp]
+10.3 +4.0 65 +7 +7 1000.8 999.3
ЮЗ 7
{13}
15 км 9/3 900 м
[Cu med, cong Ac trans]
+9.9 +4.7 70 +6 +6 1000.4 998.8
ЮЗ 8
{15}
6000 м слаб. ливневой дождь 10/9 750 м
[Cu Sc]
+9.4 +5.0 74 +5 +5 1000.2 998.6 +11.7 2
ЮЗ 7
{15}
30 км в посл. час ливневой дождь 9/9 800 м
[Cu Sc Ac trans]
+8.4 +5.0 79 +4 +4 999.6 998.0
ЮЗ 7
{13}
30 км в посл. час ливневой дождь 1/0
[Ac trans Ci fib]
+8.1 +3.6 73 +4 +4 999.7 998.2
ЮЗ 6
{15}
30 км 1/0
[Ac trans Ci fib]
+7.5 +4.1 79 +3 +3 999.4 997.8
ЮЗ 6
{13}
30 км 1/0
[Ac trans Ci fib]
+7.6 +3.4 75 +3 +3 999.0 997.4
ЮЗ 6
{10}
19 км 10/10 700 м
[]
+7.3 +3.9 79 +3 +3 998.8 997.3
ЮЗ 7
{15}
24 км {дождь, осадки} ясно +7.2 +3.9 80 +3 +3 997.9 996.4 0.3
ЮЗ 7
{14}
24 км 3/3 660 м
[]
+7.4 +3.6 77 +3 +3 997.3 995.8
ЮЗ 7
{12}
16 км {дождь, морось} 10/10 630 м
[]
+7.1 +4.5 84 +2 +2 996.4 994.8
ЮЗ 7
{14}
30 км {дождь, морось} 10/10 660 м
[]
+7.4 +3.7 77 +3 +3 995.3 993.7
Ю 7
{12}
7000 м слаб. дождь 10/10 90 м
[]
+6.7 +4.5 86 +2 +2 993.6 992.1
ЮЗ 9
{16}
9000 м слаб. дождь 10/10 90 м
[]
+6.9 +4.7 86 +1 +1 992.8 991.2
ЮЗ 9
{16}
9000 м слаб. ливневой дождь 8/8 330 м
[Cu Sc]
+7.2 +5.6 90 +2 +2 993.5 991.9 +6.5 7
З 7
{15}
15 км в посл. час ливневой дождь 8/8 400 м
[Sc]
+7.3 +5.7 90 +3 +3 994.9 993.4
З 6
{11}
15 км слаб. ливневой дождь 8/8 300 м
[Sc]
+7.0 +5.3 89 +2 +2 996.5 995.0
З 5
{15}
15 км в посл. час ливневой дождь 5/5 500 м
[Sc Ci fib]
+7.0 +5.2 88 +3 +3 997.9 996.4
З 5
{10}
15 км в посл. час ливневой дождь 8/8 480 м
[Sc]
+7.3 +5.5 88 +3 +3 999.5 997.9
З 6
{11}
15 км в посл. час ливневой дождь 6/6 330 м
[Cu Sc]
+7.5 +5.5 87 +3 +3 1000.6 999.0
З 8
{15}
7000 м слаб. ливневой дождь 8/8 360 м
[Sc]
+7.5 +5.5 87 +3 +3 1001.5 999.9 5
З 10
{16}
5000 м слаб. ливневой дождь 8/8 270 м
[Sc]
+7.5 +5.7 88 +2 +2 1001.4 999.8
СЗ 11
{20}
12 км слаб. ливневой дождь 8/8 400 м
[Sc]
+7.8 +5.4 85 +2 +2 1003.6 1002.1
С 9
{20}
12 км слаб. ливневой дождь 8/8 500 м
[Sc]
+7.6 +4.7 82 +2 +2 1007.4 1005.8
С 9
{17}
6000 м слаб. ливневой дождь 8/8 500 м
[Sc]
+6.9 +3.4 78 +2 +2 1010.6 1009.0
С 7
{17}
15 км в посл. час ливневой дождь 8/8 720 м
[Sc]
+7.2 +2.5 72 +3 +3 1013.2 1011.6
С 7
{20}
12 км слаб. дождь 8/5 1020 м
[Sc diur, vesp Ac trans]
+7.2 +2.6 73 +3 +3 1015.6 1014.0 +8.1 8
СЗ 6
{14}
20 км в посл. час дождь 1/1 1500 м
[Sc]
+6.6 +1.6 70 +2 +2 1017.3 1015.7
СЗ 6
{9}
14 км в посл. час ливневой дождь ясно +7.0 +1.3 67 +3 +3 1018.9 1017.3
СЗ 5
{14}
13 км {ливн. осадки, дождь} 8/8 800 м
[Cu med, cong]
+6.6 +2.4 75 +3 +3 1020.5 1018.9
З 4
{8}
15 км ясно +6.2 +2.6 78 +3 +3 1021.6 1020.0
З 3
{9}
16 км ясно +5.8 +2.1 77 +3 +3 1022.7 1021.1
З 4
{14}
16 км {дождь, морось} ясно +5.2 +1.7 78 +1 +1 1023.4 1021.7 0.0
З 4
{7}
16 км 10/10 1500 м
[]
+5.1 +2.3 82 +1 +1 1024.0 1022.4
З 3
{5}
14 км дождь 9/9 60 м
[]
+5.3 +2.9 84 +2 +2 1025.1 1023.4
ЮЗ 3
{7}
16 км 6/6 1300 м
[]
+4.9 +3.2 89 +1 +1 1025.3 1023.7
ЮЗ 3
{5}
15 км ясно +4.0 +2.3 89 0 0 1025.4 1023.8
ЮЗ 3
{5}
14 км ясно +3.3 +1.8 90 -1 -1 1025.4 1023.8
ЮЗ 3
{7}
15 км 1/0
[Ci fib]
+2.8 +1.4 90 -1 -1 1025.7 1024.0 +2.8 1
ЮЗ 3
{5}
15 км 1/0
[Ci fib]
+2.4 +0.8 89 -2 -2 1025.7 1024.1
Ю 3
{5}
15 км 4/0
[Ci fib]
+2.1 +0.3 88 -2 -2 1025.9 1024.3
Ю 4
{5}
15 км 6/0
[Ci fib]
+2.5 +0.3 85 -2 -2 1025.5 1023.8
Ю 5
{8}
15 км 6/0
[Ci fib]
+4.2 +0.6 77 -1 -0 1025.3 1023.7
Ю 5
{10}
15 км 6/0
[Ci fib]
+5.6 -0.3 66 +1 +2 1024.3 1022.7
Ю 7
{10}
25 км 6/0
[Ci fib]
+6.7 +0.3 64 +2 +3 1023.3 1021.7
Ю 7
{12}
25 км 6/0 2000 м
[Ac trans Ci fib]
+6.9 +0.3 63 +2 +3 1021.7 1020.1
Ю 7
{12}
25 км 9/0
[Ac trans Ci sp]
+6.8 +0.2 63 +2 +2 1020.5 1018.9
Ю 7
{12}
25 км 9/0
[Ac trans Ci sp]
+6.7 +0.3 64 +2 +2 1019.2 1017.6
Ю 7
{14}
25 км 9/0
[Ac trans]
+6.7 +0.5 65 +2 +2 1017.9 1016.2
Ю 8
{14}
25 км 9/0 2000 м
[Ac trans]
+6.7 +1.0 67 +2 +2 1016.9 1015.3
Ю 7
{14}
25 км 9/0 2000 м
[Ac trans]
+6.8 +1.0 66 +2 +2 1015.6 1014.0 +7.1
Ю 7
{13}
25 км 9/9 1500 м
[Sc]
+7.2 +1.2 66 +3 +3 1014.8 1013.2
Ю 8
{14}
25 км 9/9 800 м
[Sc]
+7.5 +1.8 67 +3 +3 1013.7 1012.1
Ю 10
{16}
30 км 10/9 870 м
[Sc]
+7.5 +2.0 68 +2 +2 1012.9 1011.3
Ю 9
{16}
30 км 10/9 960 м
[Sc]
+7.5 +2.3 70 +3 +3 1012.0 1010.4
Ю 10
{15}
29 км 10/10 750 м
[]
+7.4 +2.4 71 +2 +2 1011.6 1010.0
Ю 9
{16}
10 км 10/10 180 м
[]
+7.2 +3.3 76 +2 +2 1011.0 1009.4
Ю 9
{15}
25 км 10/10 420 м
[]
+6.7 +3.9 82 +1 +1 1010.8 1009.2
ЮЗ 8
{13}
5000 м морось 10/10 90 м
[]
+6.4 +4.5 88 +1 +1 1010.7 1009.1
ЮЗ 5
{15}
10 км слаб. морось {дождь, дымка} 10/10 180 м
[]
+6.2 +5.0 92 +2 +2 1010.5 1008.9
ЮЗ 4
{7}
12 км слаб. дождь {морось} 10/10 180 м
[]
+6.4 +5.3 93 +3 +3 1010.0 1008.4
Ю 4
{7}
12 км слаб. дождь 10/10 150 м
[]
+6.3 +5.3 93 +2 +2 1009.8 1008.2
ЮЗ 5
{15}
10 км слаб. дождь {морось} 10/10 240 м
[Frnb]
+6.3 +5.2 93 +2 +2 1009.5 1007.9 +6.2 3
ЮЗ 5
{8}
15 км в посл. час дождь 8/8 270 м
[Sc]
+6.2 +5.0 92 +2 +2 1009.2 1007.6
ЮЗ 4
{7}
25 км 9/9 270 м
[Sc]
+6.1 +4.9 92 +2 +2 1009.0 1007.4
Ю 4
{8}
30 км {дождь} 9/6 800 м
[Sc Ac trans]
+5.9 +4.5 91 +2 +2 1009.0 1007.4
ЮЗ 3
{6}
35 км 9/9 2000 м
[Cu Sc]
+6.2 +4.8 91 +3 +3 1008.9 1007.3
ЮЗ 4
{5}
35 км 9/9 450 м
[Cu Sc]
+6.5 +4.9 90 +3 +3 1008.0 1006.4
ЮЗ 4
{8}
25 км {дождь} 9/9 300 м
[Sc]
+6.8 +5.1 89 +3 +3 1007.3 1005.7 0.0
ЮЗ 3
{6}
25 км 9/9 300 м
[Sc]
+7.0 +5.1 88 +4 +4 1006.4 1004.8
ЮЗ 3
{6}
15 км 10/3 300 м
[St Cs]
+6.8 +4.9 88 +4 +4 1006.0 1004.4
ЮЗ 3
{6}
15 км 10/3 300 м
[St Cs]
+6.6 +5.0 90 +3 +3 1005.6 1004.0
Ю 3
{6}
10 км 8/1 960 м
[Sc As trans]
+6.4 +4.8 89 +3 +3 1005.2 1003.6
Ю 3
{5}
10 км 8/1 1110 м
[Cu hum As trans]
+6.2 +4.9 91 +3 +3 1005.0 1003.4
Ю 4
{6}
10 км 8/1 480 м
[Cu hum Cs]
+6.3 +5.0 91 +2 +2 1004.7 1003.1 +7.1 0.0
Ю 3
{6}
10 км 9/4 330 м
[Sc Ci sp]
+6.1 +4.6 90 +3 +3 1004.7 1003.1
Ю 3
{6}
10 км 6/0
[Ci sp]
+5.7 +4.2 90 +2 +2 1004.4 1002.8
ЮЗ 4
{6}
14 км 9/9 1230 м
[Sc]
+5.8 +4.1 89 +2 +2 1004.1 1002.5
ЮЗ 4
{7}
14 км 9/9 840 м
[Sc]
+5.8 +3.8 87 +2 +2 1003.7 1002.1
ЮЗ 4
{7}
15 км 9/9 570 м
[]
+5.7 +3.8 88 +2 +2 1003.2 1001.6
ЮЗ 4
{7}
27 км 8/8 400 м
[]
+5.9 +3.6 85 +2 +2 1003.0 1001.4
ЮЗ 4
{7}
16 км ясно +5.3 +3.7 89 +1 +1 1002.7 1001.1
ЮЗ 3
{6}
18 км 1/1 1500 м
[]
+4.6 +3.2 91 +1 +1 1002.8 1001.2
ЮЗ 3
{7}
30 км 9/9 1470 м
[]
+4.5 +2.9 89 +1 +1 1003.0 1001.4
ЮЗ 4
{6}
45 км 9/9 750 м
[]
+4.5 +2.7 88 0 0 1002.9 1001.3
ЮЗ 4
{8}
40 км {дождь, морось} 4/4 700 м
[]
+4.1 +2.5 89 -0 -0 1002.9 1001.3
ЮЗ 4
{8}
14 км 3/3 750 м
[Sc]
+3.5 +2.1 91 -1 -1 1002.9 1001.3 +3.5 0.2
ЮЗ 4
{6}
20 км 1/0
[Ci fib]
+3.0 +1.7 91 -2 -2 1002.7 1001.1
Ю 4
{6}
20 км 1/1 360 м
[Sc Ci fib]
+2.5 +1.4 92 -2 -2 1002.6 1001.0
Ю 4
{7}
20 км 3/3 240 м
[St Ci fib]
+2.9 +1.6 91 -2 -2 1002.4 1000.8
Ю 5
{7}
20 км 3/3 300 м
[St Ci fib]
+3.8 +1.8 87 -1 -1 1001.7 1000.1
Ю 5
{9}
20 км 3/3 400 м
[Sc]
+4.9 +2.0 81 0 +1 1000.4 998.8
Ю 5
{10}
20 км 3/3 480 м
[Sc Ci fib]
+6.0 +2.0 75 +2 +2 999.2 997.7
Ю 6
{11}
20 км 5/3 660 м
[Sc Ac trans Ci fib]
+6.1 +1.7 73 +2 +2 997.4 995.8
Ю 8
{12}
20 км 6/6 660 м
[Sc]
+5.5 +1.2 74 0 0 996.1 994.5
Ю 7
{12}
20 км 8/8 700 м
[Sc]
+5.3 +1.1 74 0 0 994.5 992.9
Ю 8
{11}
20 км 8/8 600 м
[Sc]
+4.9 +1.0 76 -1 -1 992.7 991.1
Ю 8
{12}
20 км 8/8 750 м
[Sc]
+5.0 +1.2 76 -1 -1 991.1 989.5
Ю 7
{12}
25 км слаб. дождь 9/9 570 м
[Sc]
+5.2 +1.6 78 -0 -0 989.6 988.1 +6.2
Ю 9
{12}
50 км в посл. час дождь 9/9 570 м
[Sc]
+5.4 +1.8 78 -1 -1 987.9 986.3
Ю 9
{14}
50 км 10/9 570 м
[Sc]
+5.6 +1.9 77 -0 -0 986.1 984.5
Ю 8
{14}
28 км слаб. дождь 10/9 500 м
[Sc]
+5.4 +2.8 83 -0 -0 984.2 982.6
Ю 8
{13}
9000 м слаб. дождь 10/9 480 м
[Sc]
+5.1 +3.1 87 -1 -1 982.8 981.3
Ю 7
{13}
14 км слаб. дождь 10/10 360 м
[]
+4.5 +2.5 87 -1 -1 981.2 979.6
Ю 6
{14}
45 км {дождь, морось} 10/10 400 м
[]
+4.3 +2.2 86 -1 -1 979.5 977.9 3
Ю 7
{10}
50 км 10/10 420 м
[]
+4.3 +2.2 86 -2 -2 977.7 976.1
Ю 6
{10}
50 км 10/10 400 м
[]
+4.4 +2.3 86 -1 -1 976.4 974.8
ЮВ 5
{10}
50 км 10/10 300 м
[]
+4.6 +2.9 89 -0 -0 974.9 973.3
ЮВ 4
{7}
19 км морось {дождь} 10/10 210 м
[]
+4.5 +3.6 94 0 0 973.1 971.6
ЮВ 4
{6}
7000 м дождь 10/10 150 м
[]
+4.7 +3.8 94 0 0 971.6 970.0
ЮВ 3
{10}
14 км слаб. дождь {морось} 9/9 180 м
[Frnb]
+5.0 +4.2 95 +1 +1 970.6 969.1 +4.3 6
Ю 2
{5}
14 км слаб. дождь {морось} 9/9 210 м
[Frnb]
+5.9 +5.0 94 +3 +3 970.9 969.4
ЮЗ 3
{5}
6000 м слаб. морось {дождь} 9/9 240 м
[Frnb]
+6.6 +5.5 93 +3 +3 971.5 970.0
ЮЗ 4
{6}
6000 м слаб. морось 9/9 240 м
[Frnb]
+6.3 +5.1 92 +2 +2 972.4 970.9
ЮЗ 3
{6}
7000 м слаб. морось 10/10 150 м
[Frnb]
+6.2 +5.3 94 +3 +3 973.2 971.7
СЗ 6
{8}
4000 м дождь {морось} 10/10 150 м
[Frnb]
+6.4 +5.2 92 +2 +2 974.8 973.3
СЗ 6
{9}
9000 м слаб. дождь {морось} 10/10 240 м
[Frnb]
+6.2 +5.3 94 +1 +1 976.9 975.4 0.9
З 7
{10}
7000 м слаб. дождь {морось} 10/10 240 м
[Frnb]
+6.3 +5.4 94 +1 +1 978.7 977.1
З 8
{13}
15 км слаб. дождь {морось} 8/8 330 м
[Frnb]
+7.6 +5.7 88 +3 +3 980.4 978.8
З 8
{13}
15 км в посл. час дождь 8/8 360 м
[Sc]
+7.8 +5.3 84 +3 +3 982.3 980.8
З 6
{12}
25 км в посл. час дождь 8/8 630 м
[Sc]
+7.6 +4.8 82 +3 +3 983.8 982.3
З 7
{12}
9000 м слаб. дождь 8/8 570 м
[Sc]
+7.1 +4.7 85 +2 +2 984.9 983.3
З 5
{13}
10 км слаб. дождь 8/8 420 м
[Cu Sc]
+6.6 +4.9 89 +2 +2 985.7 984.2 +7.9 4
ЮЗ 6
{9}
10 км слаб. дождь 10/9 420 м
[Cu Sc]
+7.0 +4.3 83 +3 +3 986.2 984.6
ЮЗ 5
{9}
20 км 9/9 1260 м
[Sc]
+7.1 +2.6 73 +3 +3 985.9 984.4
ЮЗ 4
{9}
20 км {ливн. осадки, дождь} 6/6 1260 м
[Sc Ci fib]
+6.6 +2.8 77 +3 +3 985.7 984.1
ЮЗ 5
{8}
20 км 6/0
[Ac trans Ci fib]
+6.1 +2.7 79 +2 +2 984.9 983.3
ЮЗ 6
{9}
13 км 4/4 1500 м
[]
+5.9 +2.7 80 +1 +1 984.8 983.3
ЮЗ 6
{10}
15 км {дождь, морось} 5/5 1110 м
[]
+6.2 +2.9 79 +2 +2 983.8 982.3 0.0
ЮЗ 5
{9}
15 км {дождь, морось} 10/10 800 м
[]
+6.2 +3.8 85 +2 +2 982.9 981.3
Ю 3
{8}
5000 м дождь 9/9 90 м
[]
+5.5 +4.6 94 +2 +2 981.9 980.3
В 2
{9}
4500 м слаб. дождь {морось} 10/10 90 м
[]
+5.1 +4.7 97 +2 +2 980.3 978.8
СЗ 5
{7}
4100 м слаб. дождь {морось} 10/10 90 м
[]
+5.4 +4.8 96 +1 +1 981.8 980.2
З 4
{10}
18 км {дождь, морось} 10/10 1110 м
[]
+5.7 +4.5 92 +2 +2 983.9 982.4
З 6
{11}
20 км 8/5 400 м
[Sc Ac trans Ci fib]
+5.5 +3.8 89 0 0 986.5 985.0 +5.0 5
ЮЗ 7
{12}
14 км слаб. дождь 8/5 400 м
[Sc Ac trans Ci fib]
+5.6 +3.9 89 0 0 987.7 986.1
З 7
{12}
14 км слаб. дождь 9/8 400 м
[Sc Ac trans]
+6.3 +4.3 87 +1 +1 989.0 987.5
З 8
{16}
14 км {ливн. осадки} 9/8 450 м
[Sc Ac trans]
+6.6 +3.4 80 +1 +1 990.7 989.2
З 8
{15}
14 км 5/5 450 м
[Sc Ci fib]
+7.2 +2.3 71 +2 +2 992.1 990.6
ЮЗ 6
{12}
14 км 9/1 450 м
[Sc Ac trans Ci fib]
+7.3 +1.2 65 +3 +4 992.8 991.2
ЮЗ 6
{16}
14 км 9/9 450 м
[Sc]
+7.8 +2.1 67 +4 +4 992.9 991.3 0.4
ЮЗ 7
{14}
12 км дождь 9/9 600 м
[Sc]
+6.8 +4.5 85 +2 +2 992.9 991.3
З 8
{17}
4000 м дождь 9/9 360 м
[Sc]
+6.8 +5.3 90 +2 +2 992.6 991.0
З 13
{23}
15 км в посл. час морось {дождь} 8/5 600 м
[Sc Ac trans Ci fib]
+6.8 +3.1 77 +1 +1 993.7 992.1
З 9
{21}
15 км 5/4 600 м
[Cu Sc Ac trans]
+7.1 +1.3 67 +2 +2 995.7 994.1
З 6
{13}
15 км 5/4 600 м
[Cu Sc Ci fib]
+6.9 +0.5 64 +3 +3 997.1 995.6
ЮЗ 5
{23}
15 км {дождь} 4/4 1350 м
[Cu Sc]
+7.0 +0.7 64 +3 +3 998.0 996.4 +8.0 3
ЮЗ 5
{9}
15 км 3/3 1500 м
[Sc Ci fib]
+6.2 +0.8 68 +2 +2 998.8 997.3
Ю 4
{6}
15 км 8/8 1170 м
[Sc]
+6.1 +1.6 73 +2 +2 999.0 997.4
Ю 4
{9}
15 км 6/0
[Ac trans Ci fib]
+6.5 +2.3 75 +3 +3 998.2 996.6
Ю 5
{8}
15 км 6/0
[Ac trans Ci fib]
+6.9 +3.2 77 +3 +3 997.4 995.8
Местоположение метеостанции Антверпен (Бельгия): широта 51.20 долгота 4.47 высота над уровнем моря 14 м.
В архиве по умолчанию представлена погода в Антверпене за последнюю неделю. Архивные данные за месяц целиком и за предыдущие месяцы, начиная с января 2011 года, Вы можете получить, выбрав интересующий диапазон дат из раскрывающегося списка и нажав кнопку "Найти!".
*Определитесь, кто Вы:
Внимание! Время в таблицах - всемирное. Для получения местного времени необходимо прибавить поправку, которая равна 1 ч.
Смотрите также архив погоды в соседних городах и на ближайших метеорологических станциях:
Партнеры нашего сайта:      
Пояснения к столбцам:
  • Ветер - указаны скорость ветра в м/с - средняя за 10 мин, порывы в срок и между сроками (в фигурных скобках) и направление, откуда дует ветер: С - северный,
  • СВ - северо-восточный, В - восточный, ЮВ - юго-восточный, Ю - южный, ЮЗ - юго-западный, З - западный, СЗ - северо-западный.
  • Видимость - горизонтальная дальность видимости в метрах или километрах. При видимости от 1 до 10 км при отсутствии осадков обычно наблюдается дымка, при ухудшении видимости до 1 км и менее - туман. В сухую погоду видимость может ухудшаться дымом, пылью или мглою.
  • Явления - указаны атмосферные явления, наблюдавшиеся в срок или в последний час перед сроком; фигурными скобками обозначены явления, наблюдавшиеся между сроками (за 1-3 часа до срока); квадратными скобками обозначены град или гололедные отложения с указанием их диаметра в мм.
  • Облачность - указаны через наклонную черту общая и нижняя облачность в баллах и высота нижней границы облаков в метрах; квадратными скобками обозначены формы облаков: Ci - перистые, Cs - перисто-слоистые, Cc - перисто-кучевые, Ac - высококучевые, As - высокослоистые, Sc - слоисто-кучевые, Ns - слоисто-дождевые, Cu - кучевые, Cb - кучево-дождевые. Подробнее классификацию облаков см. в Атласе облаков (PDF).
  • T - Температура воздуха - температура, измеренная на высоте 2 м над землей.
  • Td - Температура точки росы - температура, при понижении до которой содержащийся в воздухе водяной пар достигнет насыщения.
  • f - Относительная влажность воздуха - влажноcть воздуха, измеренная на высоте 2 м над землей.
  • Te - Эффективная температура - температура, которую ощущает одетый по сезону человек в тени. Характеристика душности погоды. При расчете учитывается влияние влажности воздуха и скорости ветра на теплоощущения человека.
  • Tes - Эффективная температура на солнце - температура, которую ощущает человек, с поправкой на солнечный нагрев. Характеристика знойности погоды. Зависит от высоты солнца над горизонтом, облачности и скорости ветра. Ночью, в пасмурную погоду, а также при ветре 12 м/с и более поправка равна нулю.
  • P - Атмосферное давление - приведенное к уровню моря атмосферное давление.
  • Po - Атмосферное давление - измеренное на уровне метеостанции атмосферное давление.
  • Tmin - Минимальная температура - минимум температуры воздуха на высоте 2 м над землей.
  • Tmax - Максимальная температура - максимум температуры воздуха на высоте 2 м над землей.
  • R - Количество осадков - Количество выпавших осадков за период времени, мм. При наведении курсора мыши на число - период времени, за который выпало указанное количество осадков.
  • R24 - Количество осадков - Количество выпавших осадков за 24 часа, мм.
  • S - Снежный покров - Высота снежного покрова, см. При наведении курсора мыши на число - состояние снежного покрова и степень покрытия местности в баллах.